Time,TemperatureF,DewpointF,PressureIn,WindDirection,WindDirectionDegrees,WindSpeedMPH,WindSpeedGustMPH,Humidity,HourlyPrecipIn,Conditions,Clouds,dailyrainin,SoftwareType,DateUTC
2013-05-23 00:00:00,48.7,36.3,29.85,West,281,0.0,0.0,62,0.00,,,0.00,WeatherCatV1.15B25,2013-05-23 07:00:00,
2013-05-23 00:02:00,48.7,36.3,29.84,West,280,0.0,0.0,62,0.00,,,0.00,WeatherCatV1.15B25,2013-05-23 07:02:00,
2013-05-23 00:07:00,48.5,36.5,29.85,West,281,0.0,0.0,63,0.00,,,0.00,WeatherCatV1.15B25,2013-05-23 07:07:00,
2013-05-23 00:12:00,48.4,36.4,29.85,West,280,0.0,0.0,63,0.00,,,0.00,WeatherCatV1.15B25,2013-05-23 07:12:00,
2013-05-23 00:17:00,48.3,36.3,29.85,West,280,0.0,0.0,63,0.00,,,0.00,WeatherCatV1.15B25,2013-05-23 07:17:00,
2013-05-23 00:22:00,48.1,36.9,29.85,West,281,0.0,0.0,65,0.00,,,0.00,WeatherCatV1.15B25,2013-05-23 07:22:00,
2013-05-23 00:27:00,47.9,36.7,29.85,West,281,0.0,0.0,65,0.00,,,0.00,WeatherCatV1.15B25,2013-05-23 07:27:00,
2013-05-23 00:32:00,47.7,36.9,29.85,West,280,0.0,0.0,66,0.00,,,0.00,WeatherCatV1.15B25,2013-05-23 07:32:00,
2013-05-23 00:37:00,47.5,37.1,29.85,West,281,0.0,0.0,67,0.00,,,0.00,WeatherCatV1.15B25,2013-05-23 07:37:00,
2013-05-23 00:42:00,47.4,37.0,29.85,West,281,0.0,0.0,67,0.00,,,0.00,WeatherCatV1.15B25,2013-05-23 07:42:00,
2013-05-23 00:46:00,47.4,37.0,29.85,West,281,0.0,0.0,67,0.00,,,0.00,WeatherCatV1.15B25,2013-05-23 07:46:00,
2013-05-23 00:51:00,47.3,36.5,29.85,West,280,0.0,0.0,66,0.00,,,0.00,WeatherCatV1.15B25,2013-05-23 07:51:00,
2013-05-23 00:56:00,47.1,36.7,29.85,West,281,0.0,0.0,67,0.00,,,0.00,WeatherCatV1.15B25,2013-05-23 07:56:00,
2013-05-23 01:01:00,47.0,36.6,29.85,West,280,0.0,0.0,67,0.00,,,0.00,WeatherCatV1.15B25,2013-05-23 08:01:00,
2013-05-23 01:06:00,46.8,36.8,29.85,West,280,0.0,0.0,68,0.00,,,0.00,WeatherCatV1.15B25,2013-05-23 08:06:00,
2013-05-23 01:11:00,46.7,36.7,29.85,West,281,0.0,0.0,68,0.00,,,0.00,WeatherCatV1.15B25,2013-05-23 08:11:00,
2013-05-23 01:16:00,46.6,37.0,29.85,West,281,0.0,0.0,69,0.00,,,0.00,WeatherCatV1.15B25,2013-05-23 08:16:00,
2013-05-23 01:21:00,46.6,37.0,29.85,West,281,0.0,1.0,69,0.00,,,0.00,WeatherCatV1.15B25,2013-05-23 08:21:00,
2013-05-23 01:26:00,46.7,37.1,29.85,West,280,0.0,0.0,69,0.00,,,0.00,WeatherCatV1.15B25,2013-05-23 08:26:00,
2013-05-23 01:31:00,46.8,37.2,29.85,West,281,0.0,0.0,69,0.00,,,0.00,WeatherCatV1.15B25,2013-05-23 08:31:00,
2013-05-23 01:36:00,46.9,37.3,29.85,West,280,0.0,0.0,69,0.00,,,0.00,WeatherCatV1.15B25,2013-05-23 08:36:00,
2013-05-23 01:41:00,46.9,37.3,29.85,West,280,0.0,1.0,69,0.00,,,0.00,WeatherCatV1.15B25,2013-05-23 08:41:00,
2013-05-23 01:46:00,46.9,37.3,29.85,West,281,0.0,1.0,69,0.00,,,0.00,WeatherCatV1.15B25,2013-05-23 08:46:00,
2013-05-23 01:51:00,46.9,37.6,29.85,West,281,0.0,0.0,70,0.00,,,0.00,WeatherCatV1.15B25,2013-05-23 08:51:00,
2013-05-23 01:56:00,46.8,37.5,29.85,West,280,0.0,0.0,70,0.00,,,0.00,WeatherCatV1.15B25,2013-05-23 08:56:00,
2013-05-23 02:01:00,46.8,37.9,29.85,West,281,0.0,0.0,71,0.00,,,0.00,WeatherCatV1.15B25,2013-05-23 09:01:00,
2013-05-23 02:06:00,46.7,37.8,29.85,West,281,0.0,0.0,71,0.00,,,0.00,WeatherCatV1.15B25,2013-05-23 09:06:00,
2013-05-23 02:11:00,46.6,37.7,29.85,West,280,0.0,0.0,71,0.00,,,0.00,WeatherCatV1.15B25,2013-05-23 09:11:00,
2013-05-23 02:16:00,46.5,37.6,29.85,West,280,0.0,0.0,71,0.00,,,0.00,WeatherCatV1.15B25,2013-05-23 09:16:00,
2013-05-23 02:21:00,46.4,37.5,29.85,West,281,0.0,0.0,71,0.00,,,0.00,WeatherCatV1.15B25,2013-05-23 09:21:00,
2013-05-23 02:26:00,46.3,37.8,29.85,West,281,0.0,0.0,72,0.00,,,0.00,WeatherCatV1.15B25,2013-05-23 09:26:00,
2013-05-23 02:31:00,46.2,37.7,29.85,West,281,0.0,0.0,72,0.00,,,0.00,WeatherCatV1.15B25,2013-05-23 09:31:00,
2013-05-23 02:36:00,46.1,37.6,29.85,West,281,0.0,0.0,72,0.00,,,0.00,WeatherCatV1.15B25,2013-05-23 09:36:00,
2013-05-23 02:41:00,46.0,37.5,29.85,West,281,0.0,0.0,72,0.00,,,0.00,WeatherCatV1.15B25,2013-05-23 09:41:00,
2013-05-23 02:46:00,46.0,37.1,29.85,West,280,0.0,0.0,71,0.00,,,0.00,WeatherCatV1.15B25,2013-05-23 09:46:00,
2013-05-23 02:51:00,46.0,37.1,29.85,West,280,0.0,0.0,71,0.00,,,0.00,WeatherCatV1.15B25,2013-05-23 09:51:00,
2013-05-23 02:56:00,45.9,37.0,29.85,West,281,0.0,0.0,71,0.00,,,0.00,WeatherCatV1.15B25,2013-05-23 09:56:00,
2013-05-23 03:01:00,45.9,37.0,29.85,West,281,0.0,0.0,71,0.00,,,0.00,WeatherCatV1.15B25,2013-05-23 10:01:00,
2013-05-23 03:06:00,45.8,36.9,29.85,West,280,0.0,0.0,71,0.00,,,0.00,WeatherCatV1.15B25,2013-05-23 10:06:00,
2013-05-23 03:11:00,45.8,36.6,29.85,West,281,0.0,0.0,70,0.00,,,0.00,WeatherCatV1.15B25,2013-05-23 10:11:00,
2013-05-23 03:16:00,45.8,36.6,29.85,West,281,0.0,0.0,70,0.00,,,0.00,WeatherCatV1.15B25,2013-05-23 10:16:00,
2013-05-23 03:21:00,45.7,36.8,29.85,West,280,0.0,0.0,71,0.00,,,0.00,WeatherCatV1.15B25,2013-05-23 10:21:00,
2013-05-23 03:26:00,45.6,36.7,29.85,West,281,0.0,0.0,71,0.00,,,0.00,WeatherCatV1.15B25,2013-05-23 10:26:00,
2013-05-23 03:31:00,45.5,36.7,29.85,West,281,0.0,0.0,71,0.00,,,0.00,WeatherCatV1.15B25,2013-05-23 10:31:00,
2013-05-23 03:36:00,45.4,36.6,29.85,West,281,0.0,0.0,71,0.00,,,0.00,WeatherCatV1.15B25,2013-05-23 10:36:00,
2013-05-23 03:41:00,45.3,36.5,29.85,West,280,0.0,0.0,71,0.00,,,0.00,WeatherCatV1.15B25,2013-05-23 10:41:00,
2013-05-23 03:46:00,45.2,36.4,29.85,West,281,0.0,0.0,71,0.00,,,0.00,WeatherCatV1.15B25,2013-05-23 10:46:00,
2013-05-23 03:51:00,45.0,36.5,29.86,West,281,0.0,0.0,72,0.00,,,0.00,WeatherCatV1.15B25,2013-05-23 10:51:00,
2013-05-23 03:56:00,44.9,36.4,29.85,West,280,0.0,0.0,72,0.00,,,0.00,WeatherCatV1.15B25,2013-05-23 10:56:00,
2013-05-23 04:01:00,44.9,36.4,29.85,West,280,0.0,0.0,72,0.00,,,0.00,WeatherCatV1.15B25,2013-05-23 11:01:00,
2013-05-23 04:06:00,45.0,36.9,29.85,West,281,0.0,0.0,73,0.00,,,0.00,WeatherCatV1.15B25,2013-05-23 11:06:00,
2013-05-23 04:11:00,44.9,36.8,29.85,West,281,0.0,0.0,73,0.00,,,0.00,WeatherCatV1.15B25,2013-05-23 11:11:00,
2013-05-23 04:16:00,44.9,36.8,29.86,West,281,0.0,0.0,73,0.00,,,0.00,WeatherCatV1.15B25,2013-05-23 11:16:00,
2013-05-23 04:21:00,44.9,36.8,29.86,West,281,0.0,0.0,73,0.00,,,0.00,WeatherCatV1.15B25,2013-05-23 11:21:00,
2013-05-23 04:26:00,44.8,36.7,29.86,West,281,0.0,1.0,73,0.00,,,0.00,WeatherCatV1.15B25,2013-05-23 11:26:00,
2013-05-23 04:31:00,44.7,36.6,29.86,West,281,0.0,1.0,73,0.00,,,0.00,WeatherCatV1.15B25,2013-05-23 11:31:00,
2013-05-23 04:36:00,44.6,36.5,29.86,West,280,0.0,0.0,73,0.00,,,0.00,WeatherCatV1.15B25,2013-05-23 11:36:00,
2013-05-23 04:41:00,44.6,36.8,29.86,West,281,0.0,0.0,74,0.00,,,0.00,WeatherCatV1.15B25,2013-05-23 11:41:00,
2013-05-23 04:46:00,44.5,36.7,29.86,West,281,0.0,0.0,74,0.00,,,0.00,WeatherCatV1.15B25,2013-05-23 11:46:00,
2013-05-23 04:51:00,44.4,36.6,29.86,West,280,0.0,1.0,74,0.00,,,0.00,WeatherCatV1.15B25,2013-05-23 11:51:00,
2013-05-23 04:56:00,44.2,36.4,29.86,West,281,0.0,1.0,74,0.00,,,0.00,WeatherCatV1.15B25,2013-05-23 11:56:00,
2013-05-23 05:01:00,44.2,36.8,29.86,West,281,0.0,2.0,75,0.00,,,0.00,WeatherCatV1.15B25,2013-05-23 12:01:00,
2013-05-23 05:06:00,44.1,36.7,29.86,West,280,1.0,1.0,75,0.00,,,0.00,WeatherCatV1.15B25,2013-05-23 12:06:00,
2013-05-23 05:11:00,44.1,36.7,29.86,West,281,0.0,1.0,75,0.00,,,0.00,WeatherCatV1.15B25,2013-05-23 12:11:00,
2013-05-23 05:16:00,44.1,36.7,29.86,West,281,0.0,2.0,75,0.00,,,0.00,WeatherCatV1.15B25,2013-05-23 12:16:00,
2013-05-23 05:21:00,44.2,36.8,29.86,West,281,0.0,3.0,75,0.00,,,0.00,WeatherCatV1.15B25,2013-05-23 12:21:00,
2013-05-23 05:26:00,44.2,36.8,29.86,West,280,0.0,2.0,75,0.00,,,0.00,WeatherCatV1.15B25,2013-05-23 12:26:00,
2013-05-23 05:31:00,44.3,37.2,29.86,NW,324,0.0,2.0,76,0.00,,,0.00,WeatherCatV1.15B25,2013-05-23 12:31:00,
2013-05-23 05:36:00,44.3,37.2,29.86,NNW,329,0.0,2.0,76,0.00,,,0.00,WeatherCatV1.15B25,2013-05-23 12:36:00,
2013-05-23 05:41:00,44.5,37.4,29.86,NNW,329,0.0,0.0,76,0.00,,,0.00,WeatherCatV1.15B25,2013-05-23 12:41:00,
2013-05-23 05:46:00,44.5,37.4,29.86,NNW,329,0.0,1.0,76,0.00,,,0.00,WeatherCatV1.15B25,2013-05-23 12:46:00,
2013-05-23 05:51:00,44.5,37.4,29.86,NNW,329,0.0,0.0,76,0.00,,,0.00,WeatherCatV1.15B25,2013-05-23 12:51:00,
2013-05-23 05:56:00,44.4,37.6,29.87,NNW,329,0.0,0.0,77,0.00,,,0.00,WeatherCatV1.15B25,2013-05-23 12:56:00,
2013-05-23 06:01:00,44.3,37.6,29.87,NNW,327,0.0,0.0,77,0.00,,,0.00,WeatherCatV1.15B25,2013-05-23 13:01:00,
2013-05-23 06:06:00,44.2,37.5,29.87,NNW,327,0.0,0.0,77,0.00,,,0.00,WeatherCatV1.15B25,2013-05-23 13:06:00,
2013-05-23 06:11:00,44.1,37.7,29.87,NNW,327,0.0,0.0,78,0.00,,,0.00,WeatherCatV1.15B25,2013-05-23 13:11:00,
2013-05-23 06:16:00,44.0,37.6,29.87,NNW,327,0.0,1.0,78,0.00,,,0.00,WeatherCatV1.15B25,2013-05-23 13:16:00,
2013-05-23 06:21:00,44.1,38.0,29.87,NNW,327,0.0,0.0,79,0.00,,,0.00,WeatherCatV1.15B25,2013-05-23 13:21:00,
2013-05-23 06:26:00,44.2,38.1,29.88,NW,326,0.0,1.0,79,0.00,,,0.00,WeatherCatV1.15B25,2013-05-23 13:26:00,
2013-05-23 06:31:00,44.4,38.6,29.88,NNW,327,1.0,1.0,80,0.00,,,0.00,WeatherCatV1.15B25,2013-05-23 13:31:00,
2013-05-23 06:36:00,44.7,38.9,29.88,NNW,327,0.0,1.0,80,0.00,,,0.00,WeatherCatV1.15B25,2013-05-23 13:36:00,
2013-05-23 06:41:00,45.1,39.3,29.88,NNW,327,0.0,1.0,80,0.00,,,0.00,WeatherCatV1.15B25,2013-05-23 13:41:00,
2013-05-23 06:46:00,45.4,39.6,29.88,NNW,327,1.0,1.0,80,0.00,,,0.00,WeatherCatV1.15B25,2013-05-23 13:46:00,
2013-05-23 06:51:00,45.7,39.9,29.88,WSW,240,0.0,1.0,80,0.00,,,0.00,WeatherCatV1.15B25,2013-05-23 13:51:00,
2013-05-23 06:56:00,46.0,40.2,29.89,WSW,252,1.0,2.0,80,0.00,,,0.00,WeatherCatV1.15B25,2013-05-23 13:56:00,
2013-05-23 07:01:00,46.4,40.6,29.89,WSW,254,0.0,1.0,80,0.00,,,0.00,WeatherCatV1.15B25,2013-05-23 14:01:00,
2013-05-23 07:06:00,46.8,40.6,29.89,NNW,329,0.0,1.0,79,0.00,,,0.00,WeatherCatV1.15B25,2013-05-23 14:06:00,
2013-05-23 07:11:00,47.2,41.0,29.89,NW,325,0.0,1.0,79,0.00,,,0.00,WeatherCatV1.15B25,2013-05-23 14:11:00,
2013-05-23 07:16:00,47.6,41.4,29.89,NW,325,0.0,1.0,79,0.00,,,0.00,WeatherCatV1.15B25,2013-05-23 14:16:00,
2013-05-23 07:21:00,48.0,41.5,29.89,NW,321,0.0,2.0,78,0.00,,,0.00,WeatherCatV1.15B25,2013-05-23 14:21:00,
2013-05-23 07:26:00,48.6,42.1,29.89,NW,318,0.0,2.0,78,0.00,,,0.00,WeatherCatV1.15B25,2013-05-23 14:26:00,
2013-05-23 07:31:00,49.1,42.2,29.89,NW,310,0.0,1.0,77,0.00,,,0.00,WeatherCatV1.15B25,2013-05-23 14:31:00,
2013-05-23 07:36:00,49.7,42.4,29.89,NW,314,1.0,1.0,76,0.00,,,0.00,WeatherCatV1.15B25,2013-05-23 14:36:00,
2013-05-23 07:41:00,50.3,42.7,29.89,NW,321,0.0,0.0,75,0.00,,,0.00,WeatherCatV1.15B25,2013-05-23 14:41:00,
2013-05-23 07:46:00,51.1,43.1,29.90,NW,322,0.0,5.0,74,0.00,,,0.00,WeatherCatV1.15B25,2013-05-23 14:46:00,
2013-05-23 07:51:00,51.7,42.6,29.90,NW,317,0.0,2.0,71,0.00,,,0.00,WeatherCatV1.15B25,2013-05-23 14:51:00,
2013-05-23 07:56:00,52.4,42.9,29.90,NW,318,1.0,5.0,70,0.00,,,0.00,WeatherCatV1.15B25,2013-05-23 14:56:00,
2013-05-23 08:01:00,53.2,42.9,29.90,NW,313,2.0,3.0,68,0.00,,,0.00,WeatherCatV1.15B25,2013-05-23 15:01:00,
2013-05-23 08:06:00,54.0,44.1,29.90,WNW,296,0.0,2.0,69,0.00,,,0.00,WeatherCatV1.15B25,2013-05-23 15:06:00,
2013-05-23 08:11:00,54.8,44.1,29.90,NW,318,0.0,2.0,67,0.00,,,0.00,WeatherCatV1.15B25,2013-05-23 15:11:00,
2013-05-23 08:16:00,55.5,44.3,29.90,NW,315,1.0,1.0,66,0.00,,,0.00,WeatherCatV1.15B25,2013-05-23 15:16:00,
2013-05-23 08:21:00,56.3,44.7,29.91,WNW,302,1.0,2.0,65,0.00,,,0.00,WeatherCatV1.15B25,2013-05-23 15:21:00,
2013-05-23 08:26:00,56.9,44.4,29.91,West,281,2.0,3.0,63,0.00,,,0.00,WeatherCatV1.15B25,2013-05-23 15:26:00,
2013-05-23 08:31:00,57.4,44.5,29.91,NW,319,0.0,3.0,62,0.00,,,0.00,WeatherCatV1.15B25,2013-05-23 15:31:00,
2013-05-23 08:36:00,57.8,44.0,29.91,West,265,1.0,7.0,60,0.00,,,0.00,WeatherCatV1.15B25,2013-05-23 15:36:00,
2013-05-23 08:41:00,58.2,43.5,29.91,WSW,241,1.0,4.0,58,0.00,,,0.00,WeatherCatV1.15B25,2013-05-23 15:41:00,
2013-05-23 08:46:00,58.8,44.9,29.91,NW,310,0.0,2.0,60,0.00,,,0.00,WeatherCatV1.15B25,2013-05-23 15:46:00,
2013-05-23 08:51:00,59.4,44.6,29.91,NW,314,0.0,3.0,58,0.00,,,0.00,WeatherCatV1.15B25,2013-05-23 15:51:00,
2013-05-23 08:56:00,59.6,44.8,29.91,NW,325,1.0,5.0,58,0.00,,,0.00,WeatherCatV1.15B25,2013-05-23 15:56:00,
2013-05-23 09:01:00,60.0,45.2,29.91,NW,314,1.0,3.0,58,0.00,,,0.00,WeatherCatV1.15B25,2013-05-23 16:01:00,
2013-05-23 09:06:00,60.2,44.0,29.91,NNW,333,2.0,7.0,55,0.00,,,0.00,WeatherCatV1.15B25,2013-05-23 16:06:00,
2013-05-23 09:11:00,60.4,44.6,29.91,NW,322,1.0,2.0,56,0.00,,,0.00,WeatherCatV1.15B25,2013-05-23 16:11:00,
2013-05-23 09:16:00,61.1,44.8,29.91,NW,309,0.0,3.0,55,0.00,,,0.00,WeatherCatV1.15B25,2013-05-23 16:16:00,
2013-05-23 09:21:00,61.4,44.6,29.91,NW,322,3.0,7.0,54,0.00,,,0.00,WeatherCatV1.15B25,2013-05-23 16:21:00,
2013-05-23 09:26:00,61.7,45.4,29.91,NW,324,0.0,2.0,55,0.00,,,0.00,WeatherCatV1.15B25,2013-05-23 16:26:00,
2013-05-23 09:31:00,62.2,45.3,29.91,NW,323,2.0,2.0,54,0.00,,,0.00,WeatherCatV1.15B25,2013-05-23 16:31:00,
2013-05-23 09:36:00,62.6,46.7,29.91,WNW,297,0.0,2.0,56,0.00,,,0.00,WeatherCatV1.15B25,2013-05-23 16:36:00,
2013-05-23 09:41:00,62.6,44.7,29.91,NNW,329,2.0,5.0,52,0.00,,,0.00,WeatherCatV1.15B25,2013-05-23 16:41:00,
2013-05-23 09:46:00,62.8,45.4,29.91,WSW,244,0.0,6.0,53,0.00,,,0.00,WeatherCatV1.15B25,2013-05-23 16:46:00,
2013-05-23 09:51:00,63.2,44.8,29.91,SW,230,4.0,8.0,51,0.00,,,0.00,WeatherCatV1.15B25,2013-05-23 16:51:00,
2013-05-23 09:56:00,63.5,45.6,29.91,WSW,246,1.0,6.0,52,0.00,,,0.00,WeatherCatV1.15B25,2013-05-23 16:56:00,
2013-05-23 10:01:00,63.9,46.4,29.91,NNW,328,3.0,7.0,53,0.00,,,0.00,WeatherCatV1.15B25,2013-05-23 17:01:00,
2013-05-23 10:06:00,64.3,46.3,29.91,West,267,0.0,1.0,52,0.00,,,0.00,WeatherCatV1.15B25,2013-05-23 17:06:00,
2013-05-23 10:11:00,64.2,45.7,29.91,NNW,327,0.0,7.0,51,0.00,,,0.00,WeatherCatV1.15B25,2013-05-23 17:11:00,
2013-05-23 10:16:00,64.5,47.0,29.91,NW,322,0.0,1.0,53,0.00,,,0.00,WeatherCatV1.15B25,2013-05-23 17:16:00,
2013-05-23 10:21:00,65.0,46.4,29.91,NNW,337,5.0,5.0,51,0.00,,,0.00,WeatherCatV1.15B25,2013-05-23 17:21:00,
2013-05-23 10:26:00,64.9,45.8,29.91,WNW,302,0.0,1.0,50,0.00,,,0.00,WeatherCatV1.15B25,2013-05-23 17:26:00,
2013-05-23 10:31:00,64.8,45.2,29.91,NW,315,2.0,4.0,49,0.00,,,0.00,WeatherCatV1.15B25,2013-05-23 17:31:00,
2013-05-23 10:36:00,65.0,46.9,29.91,NW,324,0.0,6.0,52,0.00,,,0.00,WeatherCatV1.15B25,2013-05-23 17:36:00,
2013-05-23 10:41:00,65.8,46.1,29.91,NW,317,0.0,3.0,49,0.00,,,0.00,WeatherCatV1.15B25,2013-05-23 17:41:00,
2013-05-23 10:46:00,66.1,46.4,29.91,NW,306,0.0,7.0,49,0.00,,,0.00,WeatherCatV1.15B25,2013-05-23 17:46:00,
2013-05-23 10:51:00,66.5,47.3,29.91,NNW,347,1.0,7.0,50,0.00,,,0.00,WeatherCatV1.15B25,2013-05-23 17:51:00,
2013-05-23 10:56:00,66.7,45.8,29.91,NNW,329,6.0,6.0,47,0.00,,,0.00,WeatherCatV1.15B25,2013-05-23 17:56:00,
2013-05-23 11:01:00,66.5,45.1,29.91,WNW,288,0.0,5.0,46,0.00,,,0.00,WeatherCatV1.15B25,2013-05-23 18:01:00,
2013-05-23 11:06:00,66.3,45.5,29.91,NW,324,3.0,6.0,47,0.00,,,0.00,WeatherCatV1.15B25,2013-05-23 18:06:00,
2013-05-23 11:11:00,66.2,44.2,29.91,NW,324,2.0,5.0,45,0.00,,,0.00,WeatherCatV1.15B25,2013-05-23 18:11:00,
2013-05-23 11:16:00,66.2,45.9,29.91,WSW,254,0.0,5.0,48,0.00,,,0.00,WeatherCatV1.15B25,2013-05-23 18:16:00,
2013-05-23 11:21:00,66.9,47.6,29.91,WSW,246,4.0,5.0,50,0.00,,,0.00,WeatherCatV1.15B25,2013-05-23 18:21:00,
2013-05-23 11:26:00,67.7,47.3,29.91,WSW,242,0.0,1.0,48,0.00,,,0.00,WeatherCatV1.15B25,2013-05-23 18:26:00,
2013-05-23 11:31:00,68.2,45.4,29.91,WNW,303,0.0,4.0,44,0.00,,,0.00,WeatherCatV1.15B25,2013-05-23 18:31:00,
2013-05-23 11:36:00,68.3,46.7,29.91,WNW,295,0.0,4.0,46,0.00,,,0.00,WeatherCatV1.15B25,2013-05-23 18:36:00,
2013-05-23 11:41:00,68.5,47.5,29.91,NNW,329,1.0,2.0,47,0.00,,,0.00,WeatherCatV1.15B25,2013-05-23 18:41:00,
2013-05-23 11:46:00,69.0,44.9,29.91,West,263,0.0,4.0,42,0.00,,,0.00,WeatherCatV1.15B25,2013-05-23 18:46:00,
2013-05-23 11:51:00,69.0,45.6,29.91,NNW,333,3.0,3.0,43,0.00,,,0.00,WeatherCatV1.15B25,2013-05-23 18:51:00,
2013-05-23 11:56:00,68.9,43.6,29.92,SW,221,0.0,1.0,40,0.00,,,0.00,WeatherCatV1.15B25,2013-05-23 18:56:00,
2013-05-23 12:01:00,69.2,46.3,29.91,WSW,250,0.0,5.0,44,0.00,,,0.00,WeatherCatV1.15B25,2013-05-23 19:01:00,
2013-05-23 12:06:00,69.7,45.6,29.91,West,261,1.0,5.0,42,0.00,,,0.00,WeatherCatV1.15B25,2013-05-23 19:06:00,
2013-05-23 12:11:00,69.8,45.7,29.91,NNW,327,5.0,9.0,42,0.00,,,0.00,WeatherCatV1.15B25,2013-05-23 19:11:00,
2013-05-23 12:16:00,70.1,45.9,29.92,NNW,327,0.0,5.0,42,0.00,,,0.00,WeatherCatV1.15B25,2013-05-23 19:16:00,
2013-05-23 12:21:00,69.9,42.4,29.91,North,350,2.0,6.0,37,0.00,,,0.00,WeatherCatV1.15B25,2013-05-23 19:21:00,
2013-05-23 12:26:00,69.7,42.9,29.91,WSW,237,1.0,4.0,38,0.00,,,0.00,WeatherCatV1.15B25,2013-05-23 19:26:00,
2013-05-23 12:31:00,69.4,42.0,29.91,North,0,0.0,3.0,37,0.00,,,0.00,WeatherCatV1.15B25,2013-05-23 19:31:00,
2013-05-23 12:36:00,69.2,41.1,29.91,NNW,329,0.0,4.0,36,0.00,,,0.00,WeatherCatV1.15B25,2013-05-23 19:36:00,
2013-05-23 12:41:00,69.5,44.8,29.91,WSW,256,3.0,3.0,41,0.00,,,0.00,WeatherCatV1.15B25,2013-05-23 19:41:00,
2013-05-23 12:46:00,70.2,42.7,29.91,NNW,341,2.0,4.0,37,0.00,,,0.00,WeatherCatV1.15B25,2013-05-23 19:46:00,
2013-05-23 12:51:00,70.6,45.7,29.91,WSW,238,0.0,2.0,41,0.00,,,0.00,WeatherCatV1.15B25,2013-05-23 19:51:00,
2013-05-23 12:56:00,71.1,43.5,29.91,NW,323,0.0,9.0,37,0.00,,,0.00,WeatherCatV1.15B25,2013-05-23 19:56:00,
2013-05-23 13:01:00,71.1,44.2,29.91,WNW,302,2.0,2.0,38,0.00,,,0.00,WeatherCatV1.15B25,2013-05-23 20:01:00,
2013-05-23 13:06:00,70.9,46.7,29.91,NW,326,1.0,3.0,42,0.00,,,0.00,WeatherCatV1.15B25,2013-05-23 20:06:00,
2013-05-23 13:11:00,71.3,43.0,29.91,WSW,248,3.0,5.0,36,0.00,,,0.00,WeatherCatV1.15B25,2013-05-23 20:11:00,
2013-05-23 13:16:00,71.6,45.3,29.91,WSW,238,0.0,2.0,39,0.00,,,0.00,WeatherCatV1.15B25,2013-05-23 20:16:00,
2013-05-23 13:21:00,72.4,46.7,29.91,WSW,240,0.0,4.0,40,0.00,,,0.00,WeatherCatV1.15B25,2013-05-23 20:21:00,
2013-05-23 13:26:00,72.9,42.9,29.91,WSW,248,0.0,1.0,34,0.00,,,0.00,WeatherCatV1.15B25,2013-05-23 20:26:00,
2013-05-23 13:31:00,72.7,43.5,29.91,WSW,247,5.0,7.0,35,0.00,,,0.00,WeatherCatV1.15B25,2013-05-23 20:31:00,
2013-05-23 13:36:00,72.6,40.2,29.91,NW,305,0.0,2.0,31,0.00,,,0.00,WeatherCatV1.15B25,2013-05-23 20:36:00,
2013-05-23 13:41:00,72.8,42.0,29.91,West,263,0.0,4.0,33,0.00,,,0.00,WeatherCatV1.15B25,2013-05-23 20:41:00,
2013-05-23 13:46:00,72.8,43.5,29.91,WNW,284,0.0,1.0,35,0.00,,,0.00,WeatherCatV1.15B25,2013-05-23 20:46:00,
2013-05-23 13:51:00,73.3,41.6,29.91,WSW,253,3.0,10.0,32,0.00,,,0.00,WeatherCatV1.15B25,2013-05-23 20:51:00,
2013-05-23 13:56:00,73.4,42.5,29.91,WSW,238,1.0,9.0,33,0.00,,,0.00,WeatherCatV1.15B25,2013-05-23 20:56:00,
2013-05-23 14:01:00,73.3,39.1,29.91,NW,325,3.0,4.0,29,0.00,,,0.00,WeatherCatV1.15B25,2013-05-23 21:01:00,
2013-05-23 14:06:00,73.2,39.9,29.90,West,277,0.0,2.0,30,0.00,,,0.00,WeatherCatV1.15B25,2013-05-23 21:06:00,
2013-05-23 14:11:00,73.5,40.2,29.90,SW,230,4.0,11.0,30,0.00,,,0.00,WeatherCatV1.15B25,2013-05-23 21:11:00,
2013-05-23 14:16:00,73.3,42.4,29.90,SW,234,4.0,9.0,33,0.00,,,0.00,WeatherCatV1.15B25,2013-05-23 21:16:00,
2013-05-23 14:21:00,73.4,43.3,29.90,North,5,3.0,5.0,34,0.00,,,0.00,WeatherCatV1.15B25,2013-05-23 21:21:00,
2013-05-23 14:26:00,73.2,45.4,29.90,West,269,0.0,2.0,37,0.00,,,0.00,WeatherCatV1.15B25,2013-05-23 21:26:00,
2013-05-23 14:31:00,73.7,41.2,29.90,NNW,337,0.0,7.0,31,0.00,,,0.00,WeatherCatV1.15B25,2013-05-23 21:31:00,
2013-05-23 14:36:00,73.8,38.6,29.90,NW,319,3.0,5.0,28,0.00,,,0.00,WeatherCatV1.15B25,2013-05-23 21:36:00,
2013-05-23 14:41:00,74.4,41.8,29.90,WSW,253,2.0,6.0,31,0.00,,,0.00,WeatherCatV1.15B25,2013-05-23 21:41:00,
2013-05-23 14:46:00,74.5,41.9,29.90,WSW,237,3.0,5.0,31,0.00,,,0.00,WeatherCatV1.15B25,2013-05-23 21:46:00,
2013-05-23 14:51:00,74.6,42.8,29.90,WSW,244,0.0,4.0,32,0.00,,,0.00,WeatherCatV1.15B25,2013-05-23 21:51:00,
2013-05-23 14:56:00,75.3,41.7,29.90,WSW,245,0.0,1.0,30,0.00,,,0.00,WeatherCatV1.15B25,2013-05-23 21:56:00,
2013-05-23 15:01:00,75.7,41.2,29.90,West,264,0.0,1.0,29,0.00,,,0.00,WeatherCatV1.15B25,2013-05-23 22:01:00,
2013-05-23 15:06:00,75.8,40.4,29.90,NNW,338,0.0,4.0,28,0.00,,,0.00,WeatherCatV1.15B25,2013-05-23 22:06:00,
2013-05-23 15:11:00,75.6,40.2,29.90,WSW,240,0.0,5.0,28,0.00,,,0.00,WeatherCatV1.15B25,2013-05-23 22:11:00,
2013-05-23 15:16:00,75.9,43.9,29.89,NNW,345,1.0,2.0,32,0.00,,,0.00,WeatherCatV1.15B25,2013-05-23 22:16:00,
2013-05-23 15:21:00,75.9,40.4,29.89,NW,317,3.0,4.0,28,0.00,,,0.00,WeatherCatV1.15B25,2013-05-23 22:21:00,
2013-05-23 15:26:00,75.2,41.6,29.89,NW,326,0.0,3.0,30,0.00,,,0.00,WeatherCatV1.15B25,2013-05-23 22:26:00,
2013-05-23 15:31:00,75.1,41.5,29.89,NNW,337,1.0,3.0,30,0.00,,,0.00,WeatherCatV1.15B25,2013-05-23 22:31:00,
2013-05-23 15:36:00,75.6,42.0,29.89,WSW,247,2.0,4.0,30,0.00,,,0.00,WeatherCatV1.15B25,2013-05-23 22:36:00,
2013-05-23 15:42:00,75.8,40.4,29.89,WSW,238,0.0,3.0,28,0.00,,,0.00,WeatherCatV1.15B25,2013-05-23 22:42:00,
2013-05-23 15:47:00,76.1,43.2,29.88,WSW,249,2.0,4.0,31,0.00,,,0.00,WeatherCatV1.15B25,2013-05-23 22:47:00,
2013-05-23 15:52:00,76.2,42.5,29.88,WSW,237,9.0,9.0,30,0.00,,,0.00,WeatherCatV1.15B25,2013-05-23 22:52:00,
2013-05-23 15:57:00,76.2,41.6,29.88,WSW,249,0.0,8.0,29,0.00,,,0.00,WeatherCatV1.15B25,2013-05-23 22:57:00,
2013-05-23 16:02:00,76.3,42.6,29.88,SW,233,3.0,7.0,30,0.00,,,0.00,WeatherCatV1.15B25,2013-05-23 23:02:00,
2013-05-23 16:07:00,76.2,42.5,29.88,West,267,0.0,7.0,30,0.00,,,0.00,WeatherCatV1.15B25,2013-05-23 23:07:00,
2013-05-23 16:12:00,76.1,42.4,29.88,WSW,255,0.0,4.0,30,0.00,,,0.00,WeatherCatV1.15B25,2013-05-23 23:12:00,
2013-05-23 16:17:00,76.2,40.7,29.88,NW,310,0.0,3.0,28,0.00,,,0.00,WeatherCatV1.15B25,2013-05-23 23:17:00,
2013-05-23 16:22:00,76.1,41.5,29.88,NW,313,0.0,7.0,29,0.00,,,0.00,WeatherCatV1.15B25,2013-05-23 23:22:00,
2013-05-23 16:27:00,76.2,42.5,29.88,WSW,246,2.0,5.0,30,0.00,,,0.00,WeatherCatV1.15B25,2013-05-23 23:27:00,
2013-05-23 16:32:00,76.2,41.6,29.88,NNW,331,2.0,5.0,29,0.00,,,0.00,WeatherCatV1.15B25,2013-05-23 23:32:00,
2013-05-23 16:37:00,76.4,41.8,29.88,West,263,0.0,2.0,29,0.00,,,0.00,WeatherCatV1.15B25,2013-05-23 23:37:00,
2013-05-23 16:42:00,76.4,40.9,29.87,WNW,284,0.0,1.0,28,0.00,,,0.00,WeatherCatV1.15B25,2013-05-23 23:42:00,
2013-05-23 16:47:00,76.6,41.0,29.88,WNW,300,3.0,3.0,28,0.00,,,0.00,WeatherCatV1.15B25,2013-05-23 23:47:00,
2013-05-23 16:52:00,76.6,42.8,29.87,NNW,338,0.0,4.0,30,0.00,,,0.00,WeatherCatV1.15B25,2013-05-23 23:52:00,
2013-05-23 16:57:00,76.2,40.7,29.87,North,0,1.0,4.0,28,0.00,,,0.00,WeatherCatV1.15B25,2013-05-23 23:57:00,
2013-05-23 17:02:00,76.1,41.5,29.87,WSW,257,0.0,9.0,29,0.00,,,0.00,WeatherCatV1.15B25,2013-05-24 00:02:00,
2013-05-23 17:07:00,76.1,40.6,29.87,West,264,3.0,3.0,28,0.00,,,0.00,WeatherCatV1.15B25,2013-05-24 00:07:00,
2013-05-23 17:12:00,76.2,41.6,29.87,WSW,253,0.0,4.0,29,0.00,,,0.00,WeatherCatV1.15B25,2013-05-24 00:12:00,
2013-05-23 17:17:00,76.3,42.6,29.86,WNW,302,0.0,1.0,30,0.00,,,0.00,WeatherCatV1.15B25,2013-05-24 00:17:00,
2013-05-23 17:22:00,76.3,42.6,29.86,WNW,302,0.0,1.0,30,0.00,,,0.00,WeatherCatV1.15B25,2013-05-24 00:22:00,
2013-05-23 17:27:00,76.2,40.7,29.86,West,275,0.0,3.0,28,0.00,,,0.00,WeatherCatV1.15B25,2013-05-24 00:27:00,
2013-05-23 17:32:00,75.9,39.5,29.86,NW,320,0.0,4.0,27,0.00,,,0.00,WeatherCatV1.15B25,2013-05-24 00:32:00,
2013-05-23 17:37:00,75.8,37.5,29.86,West,277,3.0,4.0,25,0.00,,,0.00,WeatherCatV1.15B25,2013-05-24 00:37:00,
2013-05-23 17:42:00,75.7,40.3,29.86,NW,317,3.0,7.0,28,0.00,,,0.00,WeatherCatV1.15B25,2013-05-24 00:42:00,
2013-05-23 17:47:00,75.4,40.0,29.86,NW,325,0.0,3.0,28,0.00,,,0.00,WeatherCatV1.15B25,2013-05-24 00:47:00,
2013-05-23 17:52:00,75.4,40.9,29.86,NW,325,0.0,1.0,29,0.00,,,0.00,WeatherCatV1.15B25,2013-05-24 00:52:00,
2013-05-23 17:57:00,75.4,40.9,29.86,WNW,291,0.0,2.0,29,0.00,,,0.00,WeatherCatV1.15B25,2013-05-24 00:57:00,
2013-05-23 18:02:00,75.3,38.0,29.86,WNW,284,0.0,3.0,26,0.00,,,0.00,WeatherCatV1.15B25,2013-05-24 01:02:00,
2013-05-23 18:07:00,75.2,38.9,29.85,West,277,2.0,5.0,27,0.00,,,0.00,WeatherCatV1.15B25,2013-05-24 01:07:00,
2013-05-23 18:12:00,75.0,37.8,29.85,West,279,1.0,1.0,26,0.00,,,0.00,WeatherCatV1.15B25,2013-05-24 01:12:00,
2013-05-23 18:17:00,74.9,38.7,29.85,West,277,1.0,3.0,27,0.00,,,0.00,WeatherCatV1.15B25,2013-05-24 01:17:00,
2013-05-23 18:22:00,74.7,39.4,29.85,WSW,241,0.0,1.0,28,0.00,,,0.00,WeatherCatV1.15B25,2013-05-24 01:22:00,
2013-05-23 18:27:00,74.4,38.2,29.85,WSW,254,0.0,1.0,27,0.00,,,0.00,WeatherCatV1.15B25,2013-05-24 01:27:00,
2013-05-23 18:32:00,74.2,39.0,29.85,WSW,252,0.0,1.0,28,0.00,,,0.00,WeatherCatV1.15B25,2013-05-24 01:32:00,
2013-05-23 18:37:00,73.7,39.5,29.85,WNW,288,0.0,1.0,29,0.00,,,0.00,WeatherCatV1.15B25,2013-05-24 01:37:00,
2013-05-23 18:42:00,73.4,38.3,29.85,WNW,284,0.0,0.0,28,0.00,,,0.00,WeatherCatV1.15B25,2013-05-24 01:42:00,
2013-05-23 18:47:00,72.9,37.9,29.85,WSW,255,0.0,1.0,28,0.00,,,0.00,WeatherCatV1.15B25,2013-05-24 01:47:00,
2013-05-23 18:52:00,72.5,37.5,29.85,WSW,258,2.0,2.0,28,0.00,,,0.00,WeatherCatV1.15B25,2013-05-24 01:52:00,
2013-05-23 18:57:00,72.2,37.3,29.85,West,259,0.0,1.0,28,0.00,,,0.00,WeatherCatV1.15B25,2013-05-24 01:57:00,
2013-05-23 19:02:00,71.9,37.9,29.85,West,259,0.0,0.0,29,0.00,,,0.00,WeatherCatV1.15B25,2013-05-24 02:02:00,
2013-05-23 19:07:00,71.4,36.6,29.85,West,275,1.0,3.0,28,0.00,,,0.00,WeatherCatV1.15B25,2013-05-24 02:07:00,
2013-05-23 19:12:00,71.0,38.8,29.86,West,275,0.0,2.0,31,0.00,,,0.00,WeatherCatV1.15B25,2013-05-24 02:12:00,
2013-05-23 19:17:00,70.5,38.4,29.86,West,275,0.0,1.0,31,0.00,,,0.00,WeatherCatV1.15B25,2013-05-24 02:17:00,
2013-05-23 19:22:00,70.0,38.8,29.86,West,275,0.0,1.0,32,0.00,,,0.00,WeatherCatV1.15B25,2013-05-24 02:22:00,
2013-05-23 19:27:00,69.6,40.0,29.86,West,275,0.0,0.0,34,0.00,,,0.00,WeatherCatV1.15B25,2013-05-24 02:27:00,
2013-05-23 19:32:00,69.2,39.6,29.86,West,275,0.0,3.0,34,0.00,,,0.00,WeatherCatV1.15B25,2013-05-24 02:32:00,
2013-05-23 19:37:00,68.8,39.3,29.86,West,275,0.0,2.0,34,0.00,,,0.00,WeatherCatV1.15B25,2013-05-24 02:37:00,
2013-05-23 19:42:00,68.5,39.8,29.86,West,275,0.0,0.0,35,0.00,,,0.00,WeatherCatV1.15B25,2013-05-24 02:42:00,
2013-05-23 19:47:00,68.1,39.4,29.86,West,276,0.0,0.0,35,0.00,,,0.00,WeatherCatV1.15B25,2013-05-24 02:47:00,
2013-05-23 19:52:00,67.8,39.1,29.86,West,276,0.0,0.0,35,0.00,,,0.00,WeatherCatV1.15B25,2013-05-24 02:52:00,
2013-05-23 19:57:00,67.3,39.4,29.86,West,276,0.0,0.0,36,0.00,,,0.00,WeatherCatV1.15B25,2013-05-24 02:57:00,
2013-05-23 20:02:00,66.8,39.0,29.87,West,276,0.0,0.0,36,0.00,,,0.00,WeatherCatV1.15B25,2013-05-24 03:02:00,
2013-05-23 20:07:00,66.3,39.2,29.86,West,276,0.0,0.0,37,0.00,,,0.00,WeatherCatV1.15B25,2013-05-24 03:07:00,
2013-05-23 20:12:00,65.8,39.5,29.86,West,276,0.0,0.0,38,0.00,,,0.00,WeatherCatV1.15B25,2013-05-24 03:12:00,
2013-05-23 20:17:00,65.4,39.8,29.87,West,276,0.0,0.0,39,0.00,,,0.00,WeatherCatV1.15B25,2013-05-24 03:17:00,
2013-05-23 20:22:00,64.9,39.3,29.87,West,276,0.0,0.0,39,0.00,,,0.00,WeatherCatV1.15B25,2013-05-24 03:22:00,
2013-05-23 20:27:00,64.5,39.0,29.87,West,276,0.0,1.0,39,0.00,,,0.00,WeatherCatV1.15B25,2013-05-24 03:27:00,
2013-05-23 20:32:00,64.1,39.3,29.87,West,276,0.0,0.0,40,0.00,,,0.00,WeatherCatV1.15B25,2013-05-24 03:32:00,
2013-05-23 20:37:00,63.7,40.2,29.87,West,276,0.0,0.0,42,0.00,,,0.00,WeatherCatV1.15B25,2013-05-24 03:37:00,
2013-05-23 20:42:00,63.3,39.8,29.88,West,276,0.0,0.0,42,0.00,,,0.00,WeatherCatV1.15B25,2013-05-24 03:42:00,
2013-05-23 20:47:00,62.9,40.1,29.88,West,276,0.0,0.0,43,0.00,,,0.00,WeatherCatV1.15B25,2013-05-24 03:47:00,
2013-05-23 20:52:00,62.6,39.8,29.88,West,276,0.0,0.0,43,0.00,,,0.00,WeatherCatV1.15B25,2013-05-24 03:52:00,
2013-05-23 20:57:00,62.2,39.4,29.88,West,276,0.0,0.0,43,0.00,,,0.00,WeatherCatV1.15B25,2013-05-24 03:57:00,
2013-05-23 21:01:00,62.0,39.8,29.88,West,276,0.0,0.0,44,0.00,,,0.00,WeatherCatV1.15B25,2013-05-24 04:01:00,
2013-05-23 21:06:00,61.6,40.0,29.88,West,276,0.0,1.0,45,0.00,,,0.00,WeatherCatV1.15B25,2013-05-24 04:06:00,
2013-05-23 21:11:00,61.2,40.3,29.88,West,276,0.0,0.0,46,0.00,,,0.00,WeatherCatV1.15B25,2013-05-24 04:11:00,
2013-05-23 21:16:00,60.9,40.0,29.89,West,276,0.0,0.0,46,0.00,,,0.00,WeatherCatV1.15B25,2013-05-24 04:16:00,
2013-05-23 21:21:00,60.6,40.3,29.89,West,276,0.0,0.0,47,0.00,,,0.00,WeatherCatV1.15B25,2013-05-24 04:21:00,
2013-05-23 21:26:00,60.2,39.9,29.89,West,276,0.0,0.0,47,0.00,,,0.00,WeatherCatV1.15B25,2013-05-24 04:26:00,
2013-05-23 21:31:00,59.9,39.6,29.89,West,276,0.0,0.0,47,0.00,,,0.00,WeatherCatV1.15B25,2013-05-24 04:31:00,
2013-05-23 21:36:00,59.6,39.9,29.89,West,276,0.0,0.0,48,0.00,,,0.00,WeatherCatV1.15B25,2013-05-24 04:36:00,
2013-05-23 21:41:00,59.3,40.1,29.90,West,276,0.0,0.0,49,0.00,,,0.00,WeatherCatV1.15B25,2013-05-24 04:41:00,
2013-05-23 21:46:00,58.9,40.3,29.90,West,276,0.0,0.0,50,0.00,,,0.00,WeatherCatV1.15B25,2013-05-24 04:46:00,
2013-05-23 21:51:00,58.5,39.9,29.90,West,276,0.0,0.0,50,0.00,,,0.00,WeatherCatV1.15B25,2013-05-24 04:51:00,
2013-05-23 21:56:00,58.1,39.6,29.90,West,276,0.0,0.0,50,0.00,,,0.00,WeatherCatV1.15B25,2013-05-24 04:56:00,
2013-05-23 22:01:00,57.7,39.7,29.90,West,276,0.0,0.0,51,0.00,,,0.00,WeatherCatV1.15B25,2013-05-24 05:01:00,
2013-05-23 22:06:00,57.4,39.9,29.90,West,276,0.0,0.0,52,0.00,,,0.00,WeatherCatV1.15B25,2013-05-24 05:06:00,
2013-05-23 22:11:00,57.0,40.5,29.91,West,276,0.0,0.0,54,0.00,,,0.00,WeatherCatV1.15B25,2013-05-24 05:11:00,
2013-05-23 22:16:00,56.6,40.6,29.91,West,276,0.0,1.0,55,0.00,,,0.00,WeatherCatV1.15B25,2013-05-24 05:16:00,
2013-05-23 22:21:00,56.4,40.9,29.91,West,276,0.0,0.0,56,0.00,,,0.00,WeatherCatV1.15B25,2013-05-24 05:21:00,
2013-05-23 22:26:00,56.4,41.4,29.91,West,276,0.0,0.0,57,0.00,,,0.00,WeatherCatV1.15B25,2013-05-24 05:26:00,
2013-05-23 22:31:00,56.3,41.3,29.91,West,276,0.0,0.0,57,0.00,,,0.00,WeatherCatV1.15B25,2013-05-24 05:31:00,
2013-05-23 22:36:00,56.2,41.2,29.91,West,276,0.0,0.0,57,0.00,,,0.00,WeatherCatV1.15B25,2013-05-24 05:36:00,
2013-05-23 22:41:00,56.0,41.4,29.91,West,276,0.0,0.0,58,0.00,,,0.00,WeatherCatV1.15B25,2013-05-24 05:41:00,
2013-05-23 22:46:00,55.8,41.7,29.91,West,276,0.0,0.0,59,0.00,,,0.00,WeatherCatV1.15B25,2013-05-24 05:46:00,
2013-05-23 22:51:00,55.7,41.6,29.91,West,276,0.0,0.0,59,0.00,,,0.00,WeatherCatV1.15B25,2013-05-24 05:51:00,
2013-05-23 22:56:00,55.6,41.9,29.91,West,276,0.0,0.0,60,0.00,,,0.00,WeatherCatV1.15B25,2013-05-24 05:56:00,
2013-05-23 23:01:00,55.7,42.5,29.91,West,276,0.0,1.0,61,0.00,,,0.00,WeatherCatV1.15B25,2013-05-24 06:01:00,
2013-05-23 23:06:00,55.6,42.4,29.91,West,276,0.0,0.0,61,0.00,,,0.00,WeatherCatV1.15B25,2013-05-24 06:06:00,
2013-05-23 23:11:00,55.5,42.7,29.91,West,276,0.0,0.0,62,0.00,,,0.00,WeatherCatV1.15B25,2013-05-24 06:11:00,
2013-05-23 23:16:00,55.4,42.6,29.91,West,276,0.0,0.0,62,0.00,,,0.00,WeatherCatV1.15B25,2013-05-24 06:16:00,
2013-05-23 23:21:00,55.2,42.8,29.91,West,276,0.0,0.0,63,0.00,,,0.00,WeatherCatV1.15B25,2013-05-24 06:21:00,
2013-05-23 23:26:00,55.0,42.6,29.91,West,276,0.0,0.0,63,0.00,,,0.00,WeatherCatV1.15B25,2013-05-24 06:26:00,
2013-05-23 23:31:00,54.8,42.9,29.91,West,276,0.0,0.0,64,0.00,,,0.00,WeatherCatV1.15B25,2013-05-24 06:31:00,
2013-05-23 23:36:00,54.7,42.8,29.91,West,276,0.0,0.0,64,0.00,,,0.00,WeatherCatV1.15B25,2013-05-24 06:36:00,
2013-05-23 23:41:00,54.6,42.7,29.91,West,276,0.0,0.0,64,0.00,,,0.00,WeatherCatV1.15B25,2013-05-24 06:41:00,
2013-05-23 23:46:00,54.3,42.8,29.92,West,276,0.0,0.0,65,0.00,,,0.00,WeatherCatV1.15B25,2013-05-24 06:46:00,
2013-05-23 23:51:00,54.1,42.2,29.92,West,276,0.0,0.0,64,0.00,,,0.00,WeatherCatV1.15B25,2013-05-24 06:51:00,
2013-05-23 23:55:00,53.9,42.0,29.92,West,276,0.0,0.0,64,0.00,,,0.00,WeatherCatV1.15B25,2013-05-24 06:55:00,